Location: Göttingen
(51.5413°N, 9.9158°E)
Time: 06:31:41
(UTC+02:00)

RS-44 - Visible Passes

Search period start: 26 June 2022 00:00
Search period end: 06 July 2022 00:00
Orbit: 1175 x 1509 km, 82.5° (Epoch: 25 June)

Date Brightness Start Highest point End Pass type
(mag) Time Alt. Az. Time Alt. Az. Time Alt. Az.
26 Jun ? 00:57:12 10° W 01:03:04 21° NW 01:09:13 10° N visible
26 Jun ? 23:23:53 10° SW 23:31:43 49° WNW 23:40:08 10° N visible
27 Jun ? 01:23:21 10° WNW 01:27:54 15° NW 01:32:34 10° N visible
27 Jun ? 23:48:35 10° SW 23:56:00 36° WNW 00:03:53 10° N visible
28 Jun ? 01:50:34 10° NW 01:52:55 11° NNW 01:55:17 10° NNW visible
28 Jun ? 22:17:23 10° S 22:25:34 86° W 22:34:23 10° N visible
29 Jun ? 00:13:45 10° WSW 00:20:28 26° NW 00:27:32 10° N visible
29 Jun ? 22:41:23 10° SSW 22:49:31 63° WNW 22:58:14 10° N visible
30 Jun ? 00:39:26 10° W 00:45:08 19° NW 00:51:03 10° N visible
30 Jun ? 23:05:47 10° SW 23:13:39 45° WNW 23:22:02 10° N visible
01 Jul ? 01:05:47 10° WNW 01:10:00 14° NW 01:14:21 10° N visible
01 Jul ? 23:30:36 10° WSW 23:37:58 33° WNW 23:45:46 10° N visible
02 Jul ? 01:33:32 10° NW 01:35:05 10° NNW 01:36:39 10° NNW visible
02 Jul ? 23:55:53 10° WSW 00:02:30 24° NW 00:09:23 10° N visible
03 Jul ? 22:23:12 10° SSW 22:31:24 58° WNW 22:40:08 10° N visible
04 Jul ? 00:21:44 10° W 00:27:13 18° NW 00:32:52 10° N visible
04 Jul ? 22:47:43 10° SW 22:55:36 42° WNW 23:03:55 10° N visible
05 Jul ? 00:48:18 10° WNW 00:52:09 13° NW 00:56:04 10° N visible
05 Jul ? 23:12:39 10° WSW 23:19:58 31° WNW 23:27:37 10° N visible
